Location: Creola (historical)
(38.1334°N, 100.5024°W)
Time: 06:44:46
(UTC+00:00)

Cosmos 1980 Rocket - Pass Details

Date: 18 October 2021
Orbit: 828 x 851 km, 71.0° (Epoch: 30 November)

Event Time Altitude Azimuth Distance (km) Brightness Sun altitude
Exits shadow 12:10:20 - 298° (WNW) 2,568 4.1 -9.3°
Reaches altitude 10° 12:10:45 10° 295° (WNW) 2,480 4.0 -9.2°
Maximum altitude 12:13:48 15° 262° (W) 2,141 3.7 -8.6°
Drops below altitude 10° 12:16:52 10° 229° (SW) 2,467 4.2 -8.0°
Sets 12:20:23 0° 207° (SSW) 3,393 5.1 -7.4°
